| time (UTC) | temp F | wind direction | speed MPH | gust MPH | rain 1hr in | rain 24hr in | rain mn in | humidity % | barometer mb |
| 20260507060540 | 55 | 222 | 2.0 | 2.0 | 0.00 | 0.00 | 0.00 | 99 | 1006.0 |
| 20260507060037 | 55 | 204 | 0.0 | 0.0 | 0.00 | 0.00 | 0.00 | 99 | 1006.5 |
| 20260507055531 | 55 | 204 | 1.0 | 1.0 | 0.00 | 0.00 | 0.00 | 99 | 1006.1 |
| 20260507055028 | 56 | 210 | 0.0 | 0.0 | 0.00 | 0.00 | 0.00 | 99 | 1006.4 |
| 20260507054524 | 56 | 218 | 0.0 | 0.0 | 0.00 | 0.00 | 0.00 | 99 | 1006.4 |
| 20260507054021 | 56 | 199 | 0.0 | 1.0 | 0.00 | 0.00 | 0.00 | 99 | 1006.4 |
| 20260507053519 | 56 | 188 | 1.0 | 2.0 | 0.00 | 0.00 | 0.00 | 99 | 1006.4 |
| 20260507053017 | 56 | 198 | 1.0 | 1.0 | 0.00 | 0.00 | 0.00 | 99 | 1006.4 |
| 20260507052515 | 56 | 226 | 0.0 | 1.0 | 0.00 | 0.00 | 0.00 | 99 | 1006.5 |
| 20260507052011 | 56 | 181 | 1.0 | 2.0 | 0.00 | 0.00 | 0.00 | 99 | 1006.7 |
| 20260507051509 | 56 | 208 | 0.0 | 0.0 | 0.00 | 0.00 | 0.00 | 99 | 1006.7 |
| 20260507051006 | 56 | 200 | 1.0 | 1.0 | 0.00 | 0.00 | 0.00 | 99 | 1006.5 |
| 20260507050502 | 56 | 221 | 1.0 | 2.0 | 0.00 | 0.00 | 0.00 | 99 | 1006.6 |
| 20260507045959 | 56 | 245 | 0.0 | 1.0 | 0.00 | 0.00 | 0.00 | 99 | 1007.0 |
| 20260507045455 | 56 | 231 | 1.0 | 1.0 | 0.00 | 0.00 | 0.00 | 99 | 1006.8 |
| 20260507044953 | 56 | 197 | 0.0 | 0.0 | 0.00 | 0.00 | 0.00 | 99 | 1006.6 |
| 20260507044449 | 56 | 181 | 1.0 | 2.0 | 0.00 | 0.00 | 0.00 | 99 | 1006.8 |
| 20260507043945 | 56 | 213 | 0.0 | 1.0 | 0.00 | 0.00 | 0.00 | 99 | 1006.8 |
| 20260507043442 | 56 | 206 | 0.0 | 0.0 | 0.00 | 0.00 | 0.00 | 99 | 1006.8 |
| 20260507042938 | 56 | 195 | 2.0 | 2.0 | 0.00 | 0.00 | 0.00 | 99 | 1006.6 |
| 20260507042435 | 56 | 253 | 1.0 | 2.0 | 0.00 | 0.00 | 0.00 | 99 | 1006.5 |
| 20260507041931 | 56 | 213 | 0.0 | 1.0 | 0.00 | 0.00 | 0.00 | 99 | 1006.7 |
| 20260507041427 | 56 | 180 | 1.0 | 1.0 | 0.00 | 0.00 | 0.00 | 99 | 1006.7 |
| 20260507040925 | 56 | 205 | 0.0 | 1.0 | 0.00 | 0.00 | 0.00 | 99 | 1006.7 |
| 20260507040421 | 56 | 223 | 1.0 | 1.0 | 0.00 | 0.00 | 0.00 | 99 | 1006.7 |
| 20260507035917 | 56 | 234 | 0.0 | 1.0 | 0.00 | 0.17 | 0.17 | 99 | 1006.6 |
| 20260507035413 | 56 | 217 | 0.0 | 1.0 | 0.00 | 0.17 | 0.17 | 99 | 1006.6 |
| 20260507034910 | 56 | 205 | 0.0 | 0.0 | 0.00 | 0.17 | 0.17 | 99 | 1006.8 |
| 20260507034407 | 56 | 226 | 1.0 | 1.0 | 0.00 | 0.17 | 0.17 | 99 | 1006.9 |
| 20260507033905 | 56 | 156 | 2.0 | 2.0 | 0.00 | 0.17 | 0.17 | 99 | 1006.9 |
| 20260507033403 | 56 | 219 | 1.0 | 2.0 | 0.00 | 0.17 | 0.17 | 99 | 1007.2 |
| 20260507032859 | 56 | 206 | 0.0 | 0.0 | 0.00 | 0.17 | 0.17 | 99 | 1006.9 |
| 20260507032356 | 55 | 180 | 0.0 | 1.0 | 0.00 | 0.17 | 0.17 | 99 | 1007.0 |
| 20260507031852 | 55 | 225 | 2.0 | 3.0 | 0.00 | 0.17 | 0.17 | 99 | 1006.7 |
| 20260507031349 | 55 | 212 | 2.0 | 2.0 | 0.00 | 0.17 | 0.17 | 99 | 1006.8 |
| 20260507030846 | 55 | 201 | 4.0 | 7.0 | 0.00 | 0.17 | 0.17 | 99 | 1006.8 |
| 20260507030343 | 55 | 167 | 3.0 | 4.0 | 0.00 | 0.17 | 0.17 | 99 | 1006.8 |
| 20260507025840 | 55 | 207 | 1.0 | 2.0 | 0.00 | 0.17 | 0.17 | 99 | 1006.9 |
| 20260507025337 | 55 | 199 | 1.0 | 3.0 | 0.00 | 0.17 | 0.17 | 99 | 1006.8 |
| 20260507024835 | 55 | 247 | 1.0 | 2.0 | 0.00 | 0.17 | 0.17 | 99 | 1006.8 |
| 20260507024332 | 55 | 210 | 0.0 | 0.0 | 0.00 | 0.17 | 0.17 | 99 | 1006.6 |
| 20260507023828 | 55 | 209 | 0.0 | 1.0 | 0.00 | 0.17 | 0.17 | 99 | 1006.6 |
| 20260507023325 | 55 | 184 | 0.0 | 1.0 | 0.00 | 0.17 | 0.17 | 99 | 1006.6 |
| 20260507022823 | 55 | 234 | 0.0 | 1.0 | 0.00 | 0.17 | 0.17 | 99 | 1006.5 |
| 20260507022319 | 55 | 240 | 1.0 | 3.0 | 0.00 | 0.17 | 0.17 | 99 | 1006.5 |
| 20260507021815 | 55 | 227 | 2.0 | 2.0 | 0.00 | 0.17 | 0.17 | 99 | 1006.9 |
| 20260507021311 | 55 | 227 | 1.0 | 2.0 | 0.00 | 0.17 | 0.17 | 99 | 1006.8 |
| 20260507020809 | 55 | 218 | 2.0 | 3.0 | 0.00 | 0.17 | 0.17 | 99 | 1006.8 |
| 20260507020305 | 55 | 242 | 1.0 | 1.0 | 0.00 | 0.17 | 0.17 | 99 | 1007.2 |
| 20260507015802 | 55 | 198 | 1.0 | 1.0 | 0.00 | 0.17 | 0.17 | 99 | 1007.1 |
| 20260507015300 | 55 | 351 | 1.0 | 3.0 | 0.00 | 0.17 | 0.17 | 99 | 1007.5 |
| 20260507014757 | 55 | 188 | 2.0 | 4.0 | 0.00 | 0.17 | 0.17 | 99 | 1007.4 |
| 20260507014253 | 55 | 231 | 1.0 | 1.0 | 0.00 | 0.17 | 0.17 | 99 | 1007.3 |
| 20260507013750 | 55 | 218 | 4.0 | 4.0 | 0.00 | 0.17 | 0.17 | 99 | 1007.1 |
| 20260507013247 | 55 | 212 | 1.0 | 2.0 | 0.00 | 0.17 | 0.17 | 99 | 1007.4 |
| 20260507012744 | 55 | 236 | 1.0 | 2.0 | 0.00 | 0.17 | 0.17 | 99 | 1007.3 |
| 20260507012244 | 55 | 212 | 0.0 | 1.0 | 0.00 | 0.17 | 0.17 | 99 | 1007.3 |
| 20260507011743 | 55 | 195 | 5.0 | 7.0 | 0.00 | 0.17 | 0.17 | 99 | 1007.4 |
| 20260507011239 | 55 | 15 | 2.0 | 3.0 | 0.00 | 0.17 | 0.17 | 99 | 1007.4 |
| 20260507010738 | 55 | 47 | 2.0 | 3.0 | 0.00 | 0.17 | 0.17 | 99 | 1007.6 |
| 20260507010234 | 55 | 206 | 2.0 | 2.0 | 0.00 | 0.17 | 0.17 | 99 | 1007.5 |
| 20260507005732 | 55 | 218 | 2.0 | 3.0 | 0.00 | 0.17 | 0.17 | 99 | 1007.5 |
| 20260507005228 | 56 | 235 | 5.0 | 8.0 | 0.00 | 0.17 | 0.17 | 99 | 1007.4 |
| 20260507004725 | 56 | 199 | 2.0 | 3.0 | 0.00 | 0.17 | 0.17 | 99 | 1007.6 |
| 20260507004223 | 56 | 249 | 4.0 | 4.0 | 0.00 | 0.17 | 0.17 | 99 | 1007.4 |
| 20260507003719 | 56 | 213 | 4.0 | 4.0 | 0.00 | 0.17 | 0.17 | 99 | 1007.3 |
| 20260507003214 | 56 | 252 | 2.0 | 3.0 | 0.07 | 0.17 | 0.17 | 99 | 1007.3 |
| 20260507002710 | 56 | 232 | 4.0 | 6.0 | 0.07 | 0.17 | 0.17 | 99 | 1007.3 |
| 20260507002206 | 56 | 216 | 2.0 | 2.0 | 0.00 | 0.16 | 0.16 | 99 | 1007.3 |
| 20260507001703 | 56 | 203 | 4.0 | 4.0 | 0.00 | 0.16 | 0.16 | 99 | 1007.2 |
| 20260507001201 | 56 | 133 | 2.0 | 2.0 | 0.00 | 0.16 | 0.16 | 99 | 1007.3 |
| 20260507000657 | 56 | 187 | 1.0 | 1.0 | 0.00 | 0.16 | 0.16 | 99 | 1007.5 |
| 20260507000152 | 56 | 170 | 1.0 | 1.0 | 0.00 | 0.16 | 0.16 | 99 | 1007.2 |
| 20260506235650 | 56 | 197 | 2.0 | 4.0 | 0.00 | 0.16 | 0.16 | 99 | 1007.5 |
| 20260506235145 | 56 | 159 | 1.0 | 1.0 | 0.05 | 0.16 | 0.16 | 99 | 1007.2 |
| 20260506234642 | 57 | 230 | 2.0 | 2.0 | 0.05 | 0.16 | 0.16 | 99 | 1007.2 |
| 20260506234139 | 56 | 158 | 4.0 | 7.0 | 0.00 | 0.15 | 0.15 | 99 | 1007.4 |
| 20260506233636 | 56 | 191 | 1.0 | 1.0 | 0.07 | 0.15 | 0.15 | 99 | 1007.5 |
| 20260506233133 | 56 | 154 | 2.0 | 2.0 | 0.07 | 0.15 | 0.15 | 98 | 1007.3 |
| 20260506232629 | 56 | 222 | 1.0 | 1.0 | 0.00 | 0.14 | 0.14 | 98 | 1007.4 |
| 20260506232125 | 56 | 220 | 2.0 | 3.0 | 0.05 | 0.14 | 0.14 | 98 | 1007.5 |
| 20260506231622 | 56 | 243 | 8.0 | 10.0 | 0.12 | 0.14 | 0.14 | 98 | 1007.6 |
| 20260506231121 | 56 | 237 | 4.0 | 6.0 | 0.07 | 0.13 | 0.13 | 98 | 1007.4 |
| 20260506230617 | 56 | 187 | 4.0 | 6.0 | 0.07 | 0.12 | 0.12 | 98 | 1007.4 |
| 20260506230114 | 56 | 194 | 1.0 | 2.0 | 0.12 | 0.12 | 0.12 | 98 | 1007.4 |
| 20260506225611 | 56 | 202 | 6.0 | 10.0 | 0.12 | 0.11 | 0.11 | 98 | 1007.3 |
| 20260506225107 | 56 | 174 | 3.0 | 3.0 | 0.07 | 0.10 | 0.10 | 98 | 1007.3 |
| 20260506224604 | 56 | 226 | 2.0 | 3.0 | 0.05 | 0.09 | 0.09 | 97 | 1007.3 |
| 20260506224101 | 57 | 189 | 1.0 | 3.0 | 0.12 | 0.09 | 0.09 | 97 | 1007.6 |
| 20260506223556 | 57 | 106 | 2.0 | 3.0 | 0.07 | 0.08 | 0.08 | 97 | 1007.3 |
| 20260506223053 | 57 | 222 | 3.0 | 6.0 | 0.05 | 0.07 | 0.07 | 97 | 1007.5 |
| 20260506222550 | 57 | 203 | 1.0 | 1.0 | 0.05 | 0.07 | 0.07 | 96 | 1007.5 |
| 20260506222046 | 57 | 173 | 6.0 | 8.0 | 0.00 | 0.06 | 0.06 | 96 | 1007.7 |
| 20260506221544 | 57 | 86 | 2.0 | 4.0 | 0.00 | 0.06 | 0.06 | 96 | 1007.7 |
| 20260506221042 | 57 | 211 | 5.0 | 7.0 | 0.00 | 0.06 | 0.06 | 96 | 1007.8 |
| 20260506220537 | 57 | 225 | 3.0 | 4.0 | 0.00 | 0.06 | 0.06 | 96 | 1007.9 |
| 20260506220033 | 57 | 233 | 3.0 | 6.0 | 0.00 | 0.06 | 0.06 | 96 | 1008.0 |
| 20260506215530 | 57 | 238 | 4.0 | 4.0 | 0.00 | 0.06 | 0.06 | 97 | 1007.9 |
| 20260506215026 | 57 | 203 | 1.0 | 2.0 | 0.00 | 0.06 | 0.06 | 97 | 1007.9 |
| 20260506214523 | 57 | 231 | 2.0 | 3.0 | 0.00 | 0.06 | 0.06 | 97 | 1007.8 |
| 20260506214020 | 57 | 293 | 2.0 | 3.0 | 0.00 | 0.06 | 0.06 | 96 | 1008.0 |
| 20260506213518 | 57 | 152 | 1.0 | 3.0 | 0.07 | 0.06 | 0.06 | 96 | 1007.9 |
| 20260506213015 | 58 | 198 | 2.0 | 3.0 | 0.12 | 0.06 | 0.06 | 96 | 1007.9 |
| 20260506212512 | 58 | 246 | 1.0 | 1.0 | 0.12 | 0.05 | 0.05 | 95 | 1008.0 |
| 20260506212007 | 58 | 202 | 0.0 | 0.0 | 0.12 | 0.04 | 0.04 | 94 | 1007.9 |
| 20260506211502 | 58 | 313 | 3.0 | 3.0 | 0.05 | 0.03 | 0.03 | 94 | 1008.2 |
| 20260506211000 | 59 | 260 | 4.0 | 6.0 | 0.00 | 0.02 | 0.02 | 93 | 1008.2 |
| 20260506210456 | 59 | 79 | 2.0 | 3.0 | 0.00 | 0.02 | 0.02 | 91 | 1008.0 |
| 20260506205953 | 59 | 212 | 5.0 | 9.0 | 0.00 | 0.02 | 0.02 | 89 | 1008.1 |
| 20260506205449 | 59 | 164 | 4.0 | 6.0 | 0.00 | 0.02 | 0.02 | 89 | 1008.2 |
| 20260506204946 | 59 | 205 | 3.0 | 4.0 | 0.00 | 0.02 | 0.02 | 91 | 1008.1 |
| 20260506204444 | 59 | 222 | 2.0 | 3.0 | 0.00 | 0.02 | 0.02 | 91 | 1008.3 |
| 20260506203941 | 59 | 231 | 1.0 | 2.0 | 0.00 | 0.02 | 0.02 | 91 | 1008.3 |
| 20260506203438 | 59 | 213 | 3.0 | 6.0 | 0.00 | 0.02 | 0.02 | 92 | 1008.3 |
| 20260506202935 | 59 | 193 | 2.0 | 3.0 | 0.00 | 0.02 | 0.02 | 93 | 1008.4 |
| 20260506202432 | 59 | 102 | 2.0 | 2.0 | 0.00 | 0.02 | 0.02 | 92 | 1008.7 |
| 20260506201928 | 59 | 185 | 3.0 | 4.0 | 0.00 | 0.02 | 0.02 | 92 | 1008.6 |
| 20260506201426 | 59 | 223 | 1.0 | 2.0 | 0.00 | 0.02 | 0.02 | 92 | 1008.4 |
| 20260506200922 | 59 | 78 | 2.0 | 3.0 | 0.07 | 0.02 | 0.02 | 92 | 1008.6 |
| 20260506200419 | 58 | 192 | 3.0 | 4.0 | 0.07 | 0.02 | 0.02 | 91 | 1008.7 |
| 20260506195915 | 59 | 208 | 2.0 | 3.0 | 0.12 | 0.02 | 0.02 | 90 | 1009.0 |
| 20260506195413 | 59 | 191 | 9.0 | 11.0 | 0.05 | 0.01 | 0.01 | 88 | 1008.8 |
| 20260506194909 | 60 | 204 | 4.0 | 7.0 | 0.00 | 0.00 | 0.00 | 86 | 1009.0 |
| 20260506194406 | 60 | 250 | 3.0 | 3.0 | 0.00 | 0.00 | 0.00 | 83 | 1009.0 |
| 20260506193903 | 61 | 185 | 5.0 | 7.0 | 0.00 | 0.00 | 0.00 | 81 | 1008.9 |
| 20260506193400 | 62 | 243 | 2.0 | 4.0 | 0.00 | 0.00 | 0.00 | 79 | 1008.8 |
| 20260506192856 | 62 | 232 | 2.0 | 2.0 | 0.00 | 0.00 | 0.00 | 78 | 1008.8 |
| 20260506192353 | 62 | 225 | 9.0 | 15.0 | 0.00 | 0.00 | 0.00 | 78 | 1009.0 |
| 20260506191850 | 62 | 83 | 3.0 | 7.0 | 0.00 | 0.00 | 0.00 | 77 | 1008.8 |
| 20260506191346 | 62 | 242 | 3.0 | 4.0 | 0.00 | 0.00 | 0.00 | 78 | 1008.9 |
| 20260506190844 | 62 | 220 | 6.0 | 9.0 | 0.00 | 0.00 | 0.00 | 78 | 1008.9 |
| 20260506190340 | 62 | 210 | 7.0 | 9.0 | 0.00 | 0.00 | 0.00 | 77 | 1009.1 |
| 20260506185837 | 62 | 244 | 10.0 | 14.0 | 0.00 | 0.00 | 0.00 | 77 | 1009.1 |
| 20260506185334 | 63 | 205 | 6.0 | 9.0 | 0.00 | 0.00 | 0.00 | 77 | 1008.9 |
| 20260506184831 | 63 | 231 | 3.0 | 6.0 | 0.00 | 0.00 | 0.00 | 77 | 1009.0 |
| 20260506184328 | 63 | 215 | 5.0 | 8.0 | 0.00 | 0.00 | 0.00 | 77 | 1009.0 |
| 20260506183826 | 64 | 251 | 4.0 | 6.0 | 0.00 | 0.00 | 0.00 | 76 | 1009.3 |
| 20260506183320 | 64 | 198 | 4.0 | 6.0 | 0.00 | 0.00 | 0.00 | 76 | 1009.0 |
| 20260506182818 | 64 | 176 | 2.0 | 4.0 | 0.00 | 0.00 | 0.00 | 77 | 1009.1 |
| 20260506182315 | 63 | 285 | 2.0 | 3.0 | 0.00 | 0.00 | 0.00 | 76 | 1009.4 |
| 20260506181808 | 64 | 236 | 7.0 | 9.0 | 0.00 | 0.00 | 0.00 | 76 | 1009.3 |
| 20260506181305 | 64 | 188 | 6.0 | 8.0 | 0.00 | 0.00 | 0.00 | 75 | 1009.2 |
| 20260506180802 | 64 | 142 | 10.0 | 17.0 | 0.00 | 0.00 | 0.00 | 74 | 1009.5 |
| 20260506180257 | 64 | 178 | 4.0 | 7.0 | 0.00 | 0.00 | 0.00 | 74 | 1009.5 |
| 20260506175754 | 65 | 308 | 8.0 | 13.0 | 0.00 | 0.00 | 0.00 | 74 | 1009.5 |
| 20260506175251 | 65 | 207 | 2.0 | 4.0 | 0.00 | 0.00 | 0.00 | 74 | 1009.7 |
| 20260506174749 | 65 | 212 | 4.0 | 6.0 | 0.00 | 0.00 | 0.00 | 73 | 1009.9 |
| 20260506174246 | 66 | 36 | 4.0 | 8.0 | 0.00 | 0.00 | 0.00 | 72 | 1010.0 |
| 20260506173744 | 66 | 216 | 11.0 | 17.0 | 0.00 | 0.00 | 0.00 | 71 | 1010.0 |
| 20260506173240 | 66 | 142 | 9.0 | 15.0 | 0.00 | 0.00 | 0.00 | 71 | 1010.2 |
| 20260506172737 | 66 | 227 | 5.0 | 11.0 | 0.00 | 0.00 | 0.00 | 71 | 1010.1 |
| 20260506172233 | 67 | 254 | 3.0 | 6.0 | 0.00 | 0.00 | 0.00 | 71 | 1010.0 |
| 20260506171731 | 66 | 14 | 2.0 | 3.0 | 0.00 | 0.00 | 0.00 | 72 | 1009.9 |
| 20260506171228 | 66 | 317 | 3.0 | 6.0 | 0.00 | 0.00 | 0.00 | 71 | 1009.9 |
| 20260506170725 | 67 | 131 | 5.0 | 7.0 | 0.00 | 0.00 | 0.00 | 70 | 1009.9 |
| 20260506170222 | 66 | 203 | 5.0 | 11.0 | 0.00 | 0.00 | 0.00 | 72 | 1010.2 |
| 20260506165721 | 66 | 234 | 5.0 | 8.0 | 0.00 | 0.00 | 0.00 | 73 | 1010.3 |
| 20260506165217 | 66 | 296 | 8.0 | 15.0 | 0.00 | 0.00 | 0.00 | 72 | 1010.3 |
| 20260506164715 | 66 | 149 | 5.0 | 8.0 | 0.00 | 0.00 | 0.00 | 72 | 1010.4 |
| 20260506164212 | 66 | 231 | 4.0 | 7.0 | 0.00 | 0.00 | 0.00 | 71 | 1010.5 |
| 20260506163708 | 66 | 201 | 4.0 | 6.0 | 0.00 | 0.00 | 0.00 | 71 | 1010.3 |
| 20260506163203 | 66 | 157 | 9.0 | 11.0 | 0.00 | 0.00 | 0.00 | 71 | 1010.7 |
| 20260506162659 | 67 | 223 | 3.0 | 4.0 | 0.00 | 0.00 | 0.00 | 71 | 1010.5 |
| 20260506162157 | 66 | 246 | 6.0 | 7.0 | 0.00 | 0.00 | 0.00 | 70 | 1010.6 |
| 20260506161654 | 66 | 177 | 7.0 | 9.0 | 0.00 | 0.00 | 0.00 | 70 | 1010.7 |
| 20260506161150 | 66 | 174 | 3.0 | 4.0 | 0.00 | 0.00 | 0.00 | 72 | 1010.7 |
| 20260506160649 | 67 | 82 | 6.0 | 11.0 | 0.00 | 0.00 | 0.00 | 70 | 1010.7 |
| 20260506160145 | 67 | 207 | 3.0 | 3.0 | 0.00 | 0.00 | 0.00 | 70 | 1010.8 |
| 20260506155644 | 68 | 225 | 5.0 | 8.0 | 0.00 | 0.00 | 0.00 | 69 | 1011.0 |
| 20260506155140 | 68 | 226 | 4.0 | 6.0 | 0.00 | 0.00 | 0.00 | 68 | 1011.0 |
| 20260506153242 | 66 | 153 | 9.0 | 9.0 | 0.00 | 0.00 | 0.00 | 70 | 1011.1 |
| 20260506152739 | 66 | 204 | 3.0 | 4.0 | 0.00 | 0.00 | 0.00 | 71 | 1011.1 |
| 20260506152237 | 66 | 145 | 5.0 | 10.0 | 0.00 | 0.00 | 0.00 | 70 | 1011.3 |
| 20260506151736 | 66 | 266 | 8.0 | 13.0 | 0.00 | 0.00 | 0.00 | 71 | 1011.2 |
| 20260506151232 | 66 | 1 | 7.0 | 9.0 | 0.00 | 0.00 | 0.00 | 72 | 1011.1 |
| 20260506150728 | 66 | 286 | 5.0 | 11.0 | 0.00 | 0.00 | 0.00 | 71 | 1011.2 |
| 20260506150226 | 65 | 229 | 4.0 | 6.0 | 0.00 | 0.00 | 0.00 | 72 | 1011.4 |
| 20260506145723 | 65 | 208 | 6.0 | 8.0 | 0.00 | 0.00 | 0.00 | 72 | 1011.1 |
| 20260506145219 | 65 | 199 | 1.0 | 1.0 | 0.00 | 0.00 | 0.00 | 73 | 1011.2 |
| 20260506144716 | 65 | 202 | 3.0 | 7.0 | 0.00 | 0.00 | 0.00 | 73 | 1011.1 |
| 20260506144213 | 66 | 247 | 5.0 | 10.0 | 0.00 | 0.00 | 0.00 | 72 | 1011.1 |
| 20260506143711 | 65 | 322 | 4.0 | 6.0 | 0.00 | 0.00 | 0.00 | 72 | 1011.0 |
| 20260506143208 | 66 | 210 | 2.0 | 3.0 | 0.00 | 0.00 | 0.00 | 72 | 1011.2 |
| 20260506142707 | 66 | 222 | 6.0 | 9.0 | 0.00 | 0.00 | 0.00 | 71 | 1011.2 |
| 20260506142204 | 65 | 227 | 3.0 | 7.0 | 0.00 | 0.00 | 0.00 | 73 | 1011.0 |
| 20260506141702 | 66 | 64 | 2.0 | 4.0 | 0.00 | 0.00 | 0.00 | 71 | 1011.0 |
| 20260506141200 | 65 | 38 | 1.0 | 2.0 | 0.00 | 0.00 | 0.00 | 73 | 1010.8 |
| 20260506140658 | 65 | 220 | 3.0 | 3.0 | 0.00 | 0.00 | 0.00 | 73 | 1011.0 |
| 20260506140154 | 65 | 251 | 5.0 | 7.0 | 0.00 | 0.00 | 0.00 | 72 | 1011.3 |
| 20260506135651 | 65 | 241 | 7.0 | 16.0 | 0.00 | 0.00 | 0.00 | 73 | 1011.3 |
| 20260506135147 | 64 | 240 | 4.0 | 7.0 | 0.00 | 0.00 | 0.00 | 73 | 1011.3 |
| 20260506134644 | 64 | 268 | 5.0 | 9.0 | 0.00 | 0.00 | 0.00 | 74 | 1011.4 |
| 20260506134140 | 64 | 104 | 4.0 | 7.0 | 0.00 | 0.00 | 0.00 | 74 | 1011.6 |
| 20260506133637 | 64 | 107 | 4.0 | 6.0 | 0.00 | 0.00 | 0.00 | 76 | 1011.4 |
| 20260506133134 | 64 | 276 | 5.0 | 8.0 | 0.00 | 0.00 | 0.00 | 75 | 1011.6 |
| 20260506132632 | 64 | 189 | 9.0 | 15.0 | 0.00 | 0.00 | 0.00 | 76 | 1011.6 |
| 20260506132128 | 63 | 217 | 4.0 | 4.0 | 0.00 | 0.00 | 0.00 | 78 | 1011.5 |
| 20260506131626 | 64 | 318 | 6.0 | 9.0 | 0.00 | 0.00 | 0.00 | 76 | 1011.6 |
| 20260506131122 | 63 | 266 | 2.0 | 3.0 | 0.00 | 0.00 | 0.00 | 77 | 1011.6 |
| 20260506130619 | 63 | 231 | 5.0 | 9.0 | 0.00 | 0.00 | 0.00 | 77 | 1011.5 |
| 20260506130117 | 63 | 118 | 3.0 | 7.0 | 0.00 | 0.00 | 0.00 | 78 | 1011.4 |
| 20260506125615 | 62 | 197 | 3.0 | 6.0 | 0.00 | 0.00 | 0.00 | 78 | 1011.6 |
| 20260506125112 | 62 | 288 | 2.0 | 3.0 | 0.00 | 0.00 | 0.00 | 79 | 1011.3 |
| 20260506124610 | 62 | 171 | 4.0 | 7.0 | 0.00 | 0.00 | 0.00 | 80 | 1011.4 |
| 20260506124107 | 62 | 56 | 3.0 | 4.0 | 0.00 | 0.00 | 0.00 | 80 | 1011.4 |
| 20260506123605 | 61 | 230 | 1.0 | 1.0 | 0.00 | 0.00 | 0.00 | 81 | 1011.2 |
| 20260506123103 | 61 | 225 | 3.0 | 6.0 | 0.00 | 0.00 | 0.00 | 82 | 1011.4 |
| 20260506122559 | 61 | 171 | 4.0 | 7.0 | 0.00 | 0.00 | 0.00 | 83 | 1011.6 |
| 20260506122058 | 60 | 160 | 2.0 | 3.0 | 0.00 | 0.00 | 0.00 | 83 | 1011.5 |
| 20260506121555 | 59 | 162 | 4.0 | 6.0 | 0.00 | 0.00 | 0.00 | 84 | 1011.7 |
| 20260506121051 | 59 | 255 | 7.0 | 8.0 | 0.00 | 0.00 | 0.00 | 85 | 1011.9 |
| 20260506120549 | 59 | 217 | 2.0 | 3.0 | 0.00 | 0.00 | 0.00 | 85 | 1012.1 |
| 20260506120046 | 60 | 197 | 5.0 | 7.0 | 0.00 | 0.00 | 0.00 | 84 | 1012.1 |
| 20260506115544 | 60 | 262 | 3.0 | 4.0 | 0.00 | 0.00 | 0.00 | 84 | 1011.9 |
| 20260506115042 | 59 | 191 | 1.0 | 2.0 | 0.00 | 0.00 | 0.00 | 85 | 1011.9 |
| 20260506114539 | 59 | 225 | 4.0 | 4.0 | 0.00 | 0.00 | 0.00 | 86 | 1012.0 |
| 20260506114038 | 59 | 180 | 3.0 | 4.0 | 0.00 | 0.00 | 0.00 | 86 | 1012.0 |
| 20260506113535 | 59 | 227 | 6.0 | 10.0 | 0.00 | 0.00 | 0.00 | 86 | 1012.0 |
| 20260506113032 | 59 | 272 | 2.0 | 3.0 | 0.00 | 0.00 | 0.00 | 87 | 1012.2 |
| 20260506112529 | 59 | 214 | 4.0 | 6.0 | 0.00 | 0.00 | 0.00 | 86 | 1012.0 |
| 20260506112026 | 58 | 252 | 6.0 | 9.0 | 0.00 | 0.00 | 0.00 | 87 | 1011.9 |
| 20260506111524 | 58 | 238 | 3.0 | 3.0 | 0.00 | 0.00 | 0.00 | 87 | 1012.2 |
| 20260506111021 | 58 | 212 | 4.0 | 4.0 | 0.00 | 0.00 | 0.00 | 87 | 1012.2 |
| 20260506110519 | 59 | 277 | 1.0 | 2.0 | 0.00 | 0.00 | 0.00 | 87 | 1012.1 |
| 20260506110016 | 59 | 237 | 2.0 | 3.0 | 0.00 | 0.00 | 0.00 | 87 | 1012.1 |
| 20260506105511 | 58 | 236 | 3.0 | 3.0 | 0.00 | 0.00 | 0.00 | 87 | 1012.1 |
| 20260506105009 | 58 | 262 | 2.0 | 3.0 | 0.00 | 0.00 | 0.00 | 87 | 1012.1 |
| 20260506104507 | 58 | 219 | 2.0 | 2.0 | 0.00 | 0.00 | 0.00 | 88 | 1012.0 |
| 20260506104005 | 58 | 193 | 3.0 | 4.0 | 0.00 | 0.00 | 0.00 | 88 | 1012.1 |
| 20260506103502 | 58 | 207 | 3.0 | 3.0 | 0.00 | 0.00 | 0.00 | 88 | 1012.3 |
| 20260506102958 | 58 | 183 | 4.0 | 7.0 | 0.00 | 0.00 | 0.00 | 88 | 1012.0 |
| 20260506102456 | 58 | 138 | 2.0 | 2.0 | 0.00 | 0.00 | 0.00 | 88 | 1012.0 |
| 20260506101954 | 58 | 177 | 4.0 | 7.0 | 0.00 | 0.00 | 0.00 | 89 | 1011.9 |
| 20260506101450 | 58 | 175 | 5.0 | 8.0 | 0.00 | 0.00 | 0.00 | 88 | 1012.0 |
| 20260506100947 | 58 | 223 | 2.0 | 3.0 | 0.00 | 0.00 | 0.00 | 89 | 1011.9 |
| 20260506100446 | 58 | 107 | 3.0 | 4.0 | 0.00 | 0.00 | 0.00 | 89 | 1011.8 |
| 20260506095943 | 58 | 218 | 1.0 | 1.0 | 0.00 | 0.00 | 0.00 | 89 | 1011.6 |
| 20260506095442 | 58 | 64 | 4.0 | 7.0 | 0.00 | 0.00 | 0.00 | 89 | 1011.5 |
| 20260506094937 | 58 | 225 | 2.0 | 2.0 | 0.00 | 0.00 | 0.00 | 89 | 1011.6 |
| 20260506094436 | 58 | 232 | 3.0 | 6.0 | 0.00 | 0.00 | 0.00 | 89 | 1011.7 |
| 20260506093933 | 58 | 234 | 2.0 | 2.0 | 0.00 | 0.00 | 0.00 | 89 | 1011.6 |
| 20260506093431 | 58 | 179 | 2.0 | 2.0 | 0.00 | 0.00 | 0.00 | 89 | 1011.7 |
| 20260506092929 | 58 | 196 | 0.0 | 1.0 | 0.00 | 0.00 | 0.00 | 89 | 1011.7 |
| 20260506092427 | 57 | 210 | 2.0 | 2.0 | 0.00 | 0.00 | 0.00 | 90 | 1012.0 |
| 20260506091923 | 58 | 245 | 4.0 | 6.0 | 0.00 | 0.00 | 0.00 | 89 | 1011.8 |
| 20260506091421 | 57 | 198 | 0.0 | 1.0 | 0.00 | 0.00 | 0.00 | 89 | 1011.7 |
| 20260506090917 | 57 | 201 | 3.0 | 3.0 | 0.00 | 0.00 | 0.00 | 89 | 1011.7 |
| 20260506090415 | 57 | 201 | 1.0 | 2.0 | 0.00 | 0.00 | 0.00 | 89 | 1011.8 |
| 20260506085911 | 57 | 239 | 2.0 | 4.0 | 0.00 | 0.00 | 0.00 | 89 | 1011.9 |
| 20260506085408 | 57 | 156 | 1.0 | 2.0 | 0.00 | 0.00 | 0.00 | 89 | 1011.7 |
| 20260506084904 | 57 | 243 | 2.0 | 2.0 | 0.00 | 0.00 | 0.00 | 89 | 1012.0 |
| 20260506084401 | 57 | 154 | 4.0 | 6.0 | 0.00 | 0.00 | 0.00 | 89 | 1011.7 |
| 20260506083858 | 57 | 256 | 3.0 | 4.0 | 0.00 | 0.00 | 0.00 | 89 | 1011.9 |
| 20260506083355 | 57 | 225 | 4.0 | 4.0 | 0.00 | 0.00 | 0.00 | 89 | 1012.0 |
| 20260506082852 | 58 | 182 | 3.0 | 6.0 | 0.00 | 0.00 | 0.00 | 88 | 1012.0 |
| 20260506082350 | 58 | 226 | 3.0 | 4.0 | 0.00 | 0.00 | 0.00 | 88 | 1012.0 |
| 20260506081845 | 58 | 201 | 1.0 | 1.0 | 0.00 | 0.00 | 0.00 | 88 | 1012.0 |
| 20260506081344 | 58 | 199 | 2.0 | 2.0 | 0.00 | 0.00 | 0.00 | 88 | 1012.0 |
| 20260506080841 | 58 | 182 | 0.0 | 0.0 | 0.00 | 0.00 | 0.00 | 88 | 1012.1 |
| 20260506080338 | 58 | 219 | 1.0 | 1.0 | 0.00 | 0.00 | 0.00 | 87 | 1012.1 |
| 20260506073322 | 58 | 89 | 2.0 | 2.0 | 0.00 | 0.00 | 0.00 | 87 | 1011.8 |
| 20260506072818 | 58 | 191 | 5.0 | 7.0 | 0.00 | 0.00 | 0.00 | 87 | 1011.9 |
| 20260506072316 | 58 | 225 | 4.0 | 7.0 | 0.00 | 0.00 | 0.00 | 87 | 1012.0 |
| 20260506071813 | 58 | 76 | 6.0 | 9.0 | 0.00 | 0.00 | 0.00 | 87 | 1011.8 |
| 20260506071311 | 58 | 169 | 3.0 | 3.0 | 0.00 | 0.00 | 0.00 | 86 | 1011.9 |
| 20260506070808 | 58 | 132 | 2.0 | 2.0 | 0.00 | 0.00 | 0.00 | 86 | 1011.8 |
| 20260506070305 | 58 | 263 | 2.0 | 4.0 | 0.00 | 0.00 | 0.00 | 86 | 1011.7 |
| 20260506062243 | 58 | 189 | 2.0 | 3.0 | 0.00 | 0.00 | 0.00 | 84 | 1011.9 |
| 20260506061738 | 58 | 12 | 2.0 | 2.0 | 0.00 | 0.00 | 0.00 | 84 | 1011.7 |
| 20260506061236 | 58 | 155 | 7.0 | 11.0 | 0.00 | 0.00 | 0.00 | 84 | 1011.7 |
| 20260506060734 | 58 | 184 | 1.0 | 2.0 | 0.00 | 0.00 | 0.00 | 84 | 1011.8 |